| time (UTC) | temp F | wind direction | speed MPH | gust MPH | rain 1hr in | rain 24hr in | rain mn in | humidity % | barometer mb |
| 20260831013224 | 61 | 230 | 6.0 | 0.0 | 0.00 | 0.00 | 0.00 | 82 | 1015.0 |
| 20260831012256 | 61 | 230 | 5.0 | 0.0 | 0.00 | 0.00 | 0.00 | 82 | |
| 20260831010231 | 61 | 230 | 6.0 | 0.0 | 0.00 | 0.00 | 0.00 | 82 | 1015.0 |
| 20260831003224 | 63 | 230 | 3.0 | 0.0 | 0.00 | 0.00 | 0.00 | 77 | 1016.0 |
| 20260831002155 | 61 | 230 | 5.0 | 0.0 | 0.00 | 0.00 | 0.00 | 82 | |
| 20260831000233 | 63 | 240 | 3.0 | 0.0 | 0.00 | 0.00 | 0.00 | 82 | 1016.0 |
| 20260830233224 | 64 | 220 | 5.0 | 0.0 | 0.00 | 0.00 | 0.00 | 72 | 1016.0 |
| 20260830232356 | 64 | 210 | 5.0 | 0.0 | 0.00 | 0.00 | 0.00 | 72 | |
| 20260830230233 | 64 | 210 | 6.0 | 0.0 | 0.00 | 0.00 | 0.00 | 72 | 1016.0 |
| 20260830223223 | 68 | 160 | 3.0 | 0.0 | 0.00 | 0.00 | 0.00 | 68 | 1016.0 |
| 20260830222358 | 68 | 150 | 2.0 | 0.0 | 0.00 | 0.00 | 0.00 | 68 | |
| 20260830220235 | 68 | 140 | 2.0 | 0.0 | 0.00 | 0.00 | 0.00 | 68 | 1015.0 |
| 20260830213224 | 66 | 250 | 3.0 | 0.0 | 0.00 | 0.00 | 0.00 | 72 | 1016.0 |
| 20260830212157 | 70 | 180 | 5.0 | 0.0 | 0.00 | 0.00 | 0.00 | 64 | |
| 20260830210232 | 70 | 180 | 3.0 | 0.0 | 0.00 | 0.00 | 0.00 | 64 | 1015.0 |
| 20260830203224 | 66 | 0 | 2.0 | 0.0 | 0.00 | 0.00 | 0.00 | 82 | 1015.0 |
| 20260830202355 | 68 | 0 | 0.0 | 0.0 | 0.00 | 0.00 | 0.00 | 64 | |
| 20260830200240 | 68 | 0 | 2.0 | 0.0 | 0.00 | 0.00 | 0.00 | 64 | 1015.0 |
| 20260830193224 | 68 | 250 | 3.0 | 0.0 | 0.00 | 0.00 | 0.00 | 64 | 1015.0 |
| 20260830192256 | 72 | 0 | 2.0 | 0.0 | 0.00 | 0.00 | 0.00 | 56 | |
| 20260830190240 | 72 | 170 | 3.0 | 0.0 | 0.00 | 0.00 | 0.00 | 53 | 1015.0 |
| 20260830183230 | 73 | 150 | 6.0 | 0.0 | 0.00 | 0.00 | 0.00 | 49 | 1015.0 |
| 20260830182158 | 73 | 160 | 5.0 | 0.0 | 0.00 | 0.00 | 0.00 | 53 | |
| 20260830180233 | 75 | 160 | 5.0 | 0.0 | 0.00 | 0.00 | 0.00 | 50 | 1015.0 |
| 20260830173231 | 77 | 170 | 5.0 | 0.0 | 0.00 | 0.00 | 0.00 | 44 | 1014.0 |
| 20260830172355 | 79 | 170 | 5.0 | 0.0 | 0.00 | 0.00 | 0.00 | 41 | |
| 20260830170233 | 79 | 170 | 6.0 | 0.0 | 0.00 | 0.00 | 0.00 | 41 | 1014.0 |
| 20260830163231 | 79 | 210 | 9.0 | 0.0 | 0.00 | 0.00 | 0.00 | 41 | 1014.0 |
| 20260830162258 | 81 | 220 | 14.0 | 0.0 | 0.00 | 0.00 | 0.00 | 39 | |
| 20260830160232 | 81 | 230 | 12.0 | 0.0 | 0.00 | 0.00 | 0.00 | 39 | 1015.0 |
| 20260830153231 | 82 | 220 | 13.0 | 0.0 | 0.00 | 0.00 | 0.00 | 37 | 1015.0 |
| 20260830152156 | 82 | 220 | 12.0 | 0.0 | 0.00 | 0.00 | 0.00 | 37 | |
| 20260830150239 | 82 | 220 | 13.0 | 0.0 | 0.00 | 0.00 | 0.00 | 37 | 1015.0 |
| 20260830143231 | 82 | 220 | 15.0 | 0.0 | 0.00 | 0.00 | 0.00 | 37 | 1015.0 |
| 20260830142311 | 82 | 210 | 16.0 | 0.0 | 0.00 | 0.00 | 0.00 | 37 | |
| 20260830140232 | 82 | 220 | 15.0 | 0.0 | 0.00 | 0.00 | 0.00 | 34 | 1015.0 |
| 20260830133231 | 81 | 220 | 17.0 | 0.0 | 0.00 | 0.00 | 0.00 | 36 | 1015.0 |
| 20260830132256 | 81 | 220 | 16.0 | 0.0 | 0.00 | 0.00 | 0.00 | 39 | |
| 20260830130604 | 82 | 220 | 16.0 | 0.0 | 0.00 | 0.00 | 0.00 | 37 | 1015.0 |
| 20260830130233 | 79 | 230 | 17.0 | 0.0 | 0.00 | 0.00 | 0.00 | 41 | 1015.0 |
| 20260830123231 | 82 | 230 | 15.0 | 0.0 | 0.00 | 0.00 | 0.00 | 37 | 1016.0 |
| 20260830122228 | 81 | 230 | 16.0 | 0.0 | 0.00 | 0.00 | 0.00 | 39 | |
| 20260830120234 | 81 | 220 | 16.0 | 0.0 | 0.00 | 0.00 | 0.00 | 36 | 1016.0 |
| 20260830113231 | 81 | 240 | 14.0 | 0.0 | 0.00 | 0.00 | 0.00 | 39 | 1016.0 |
| 20260830112256 | 79 | 230 | 14.0 | 0.0 | 0.00 | 0.00 | 0.00 | 39 | |
| 20260830110235 | 81 | 220 | 14.0 | 0.0 | 0.00 | 0.00 | 0.00 | 39 | 1016.0 |
| 20260830103231 | 79 | 220 | 15.0 | 0.0 | 0.00 | 0.00 | 0.00 | 39 | 1016.0 |
| 20260830102524 | 79 | 240 | 14.0 | 0.0 | 0.00 | 0.00 | 0.00 | 44 | |
| 20260830100235 | 79 | 230 | 13.0 | 0.0 | 0.00 | 0.00 | 0.00 | 44 | 1017.0 |
| 20260830093231 | 77 | 240 | 12.0 | 0.0 | 0.00 | 0.00 | 0.00 | 50 | 1017.0 |
| 20260830092211 | 75 | 240 | 12.0 | 0.0 | 0.00 | 0.00 | 0.00 | 53 | |
| 20260830090242 | 75 | 230 | 12.0 | 0.0 | 0.00 | 0.00 | 0.00 | 53 | 1017.0 |
| 20260830083231 | 73 | 230 | 8.0 | 0.0 | 0.00 | 0.00 | 0.00 | 56 | 1017.0 |
| 20260830082329 | 72 | 230 | 9.0 | 0.0 | 0.00 | 0.00 | 0.00 | 64 | |
| 20260830080232 | 72 | 240 | 8.0 | 0.0 | 0.00 | 0.00 | 0.00 | 64 | 1017.0 |
| 20260830074903 | 72 | 240 | 7.0 | 0.0 | 0.00 | 0.00 | 0.00 | 64 | 1017.0 |
| 20260830073231 | 68 | 240 | 5.0 | 0.0 | 0.00 | 0.00 | 0.00 | 72 | 1017.0 |
| 20260830072255 | 64 | 250 | 5.0 | 0.0 | 0.00 | 0.00 | 0.00 | 82 | |
| 20260830072203 | 68 | 240 | 3.0 | 0.0 | 0.00 | 0.00 | 0.00 | 68 | 1017.0 |
| 20260830070233 | 64 | 240 | 6.0 | 0.0 | 0.00 | 0.00 | 0.00 | 82 | 1017.0 |
| 20260830063231 | 63 | 240 | 7.0 | 0.0 | 0.00 | 0.00 | 0.00 | 82 | 1017.0 |
| 20260830062213 | 61 | 220 | 7.0 | 0.0 | 0.00 | 0.00 | 0.00 | 87 | |
| 20260830060234 | 61 | 220 | 6.0 | 0.0 | 0.00 | 0.00 | 0.00 | 82 | 1017.0 |
| 20260830053224 | 57 | 220 | 6.0 | 0.0 | 0.00 | 0.00 | 0.00 | 93 | 1017.0 |
| 20260830052255 | 57 | 210 | 5.0 | 0.0 | 0.00 | 0.00 | 0.00 | 87 | |
| 20260830050240 | 55 | 210 | 3.0 | 0.0 | 0.00 | 0.00 | 0.00 | 93 | 1017.0 |
| 20260830043223 | 54 | 230 | 5.0 | 0.0 | 0.00 | 0.00 | 0.00 | 93 | 1017.0 |
| 20260830042355 | 55 | 230 | 5.0 | 0.0 | 0.00 | 0.00 | 0.00 | 87 | |
| 20260830040232 | 55 | 230 | 5.0 | 0.0 | 0.00 | 0.00 | 0.00 | 87 | 1017.0 |
| 20260830033224 | 55 | 240 | 6.0 | 0.0 | 0.00 | 0.00 | 0.00 | 93 | 1017.0 |
| 20260830032155 | 55 | 240 | 5.0 | 0.0 | 0.00 | 0.00 | 0.00 | 87 | |
| 20260830030235 | 55 | 240 | 5.0 | 0.0 | 0.00 | 0.00 | 0.00 | 93 | 1017.0 |
| 20260830023224 | 55 | 210 | 2.0 | 0.0 | 0.00 | 0.00 | 0.00 | 93 | 1016.0 |
| 20260830022255 | 57 | 210 | 2.0 | 0.0 | 0.00 | 0.00 | 0.00 | 87 | |
| 20260830020232 | 55 | 210 | 3.0 | 0.0 | 0.00 | 0.00 | 0.00 | 93 | 1017.0 |